Weather History for Grove, OK

Change the Weather History Date:

Wednesday, January 9, 2013

  Actual Average (KSLG) Record (KSLG)
Temperature  
Mean Temperature 50 °F -  
Max Temperature 55 °F 43 °F 66 °F (2002)
Min Temperature 44 °F 27 °F 10 °F (1999)
Degree Days  
Heating Degree Days 16    
Moisture  
Dew Point 43 °F    
Average Humidity 78    
Maximum Humidity 100    
Minimum Humidity 44    
Precipitation  
Precipitation 0.00 in - - ()
Sea Level Pressure  
Sea Level Pressure 30.28 in    
Wind  
Wind Speed 4 mph (ENE)    
Max Wind Speed 20 mph    
Max Gust Speed 32 mph    
Visibility 7 miles    
Events Rain    
Averages and records for this station are not official NWS values.
T = Trace of Precipitation, MM = Missing Value Source: NWS Daily Summary

Daily Weather History Graph

Daily Weather History Graph

Search for Another Location

Airport:

Trip Planner

Search our weather history database for the weather conditions in past years. The results will help you decide how hot, cold, wet, or windy it might be!

Date:

Astronomy

Jan. 09, 2013 Rise Set
Actual Time 7:31 AM CST 5:21 PM CST
Civil Twilight 7:03 AM CST 5:49 PM CST
Nautical Twilight 6:31 AM CST 6:21 PM CST
Astronomical Twilight 5:59 AM CST 6:52 PM CST
Moon 5:11 AM CST (1/9) 3:23 PM CST (1/9)
Length of Visible Light 10h 46m
Length of Day
9h 49m
Waning Crescent, 6% of the Moon is Illuminated
Jan 9
Waning Crescent
Jan 11
New
Jan 18
First Quarter
Jan 26
Full
Feb 3
Last Quarter

Hourly Weather History & Observations

Time (CST) Temp. Windchill Dew Point Humidity Pressure Visibility Wind Dir Wind Speed Gust Speed Precip Events Conditions
12:15 AM 46.4 °F - 46.4 °F 100% 30.23 in 1.5 mi Calm Calm - N/A   Light Drizzle
12:35 AM 46.4 °F 45.2 °F 46.4 °F 100% 30.23 in 1.2 mi North 3.5 mph - N/A Rain Rain
12:55 AM 46.4 °F - 46.4 °F 100% 30.23 in 1.2 mi Calm Calm - N/A   Drizzle
1:15 AM 46.4 °F - 46.4 °F 100% 30.23 in 1.2 mi Calm Calm - N/A   Scattered Clouds
1:35 AM 46.4 °F - 46.4 °F 100% 30.23 in 1.2 mi Calm Calm - N/A Rain Light Rain
1:55 AM 46.4 °F - 46.4 °F 100% 30.23 in 1.2 mi Calm Calm - N/A   Light Drizzle
2:15 AM 46.4 °F 45.2 °F 46.4 °F 100% 30.25 in 1.8 mi North 3.5 mph - N/A   Overcast
2:35 AM 46.4 °F - 46.4 °F 100% 30.25 in 1.5 mi Calm Calm - N/A   Overcast
2:55 AM 48.2 °F - 48.2 °F 100% 30.25 in 2.0 mi Calm Calm - N/A   Overcast
3:15 AM 48.2 °F - 48.2 °F 100% 30.26 in 2.0 mi North 3.5 mph - N/A   Overcast
3:35 AM 48.2 °F - 48.2 °F 100% 30.26 in 3.0 mi Calm Calm - N/A   Overcast
3:55 AM 48.2 °F - 48.2 °F 100% 30.25 in 2.5 mi Calm Calm - N/A   Overcast
4:15 AM 48.2 °F - 48.2 °F 100% 30.25 in 4.0 mi Calm Calm - N/A   Overcast
4:35 AM 48.2 °F - 48.2 °F 100% 30.26 in 4.0 mi Calm Calm - N/A   Overcast
4:55 AM 48.2 °F - 48.2 °F 100% 30.26 in 3.0 mi NNE 3.5 mph - N/A   Overcast
5:15 AM 46.4 °F 45.2 °F 46.4 °F 100% 30.26 in 2.5 mi NNE 3.5 mph - N/A   Overcast
5:35 AM 46.4 °F - 46.4 °F 100% 30.26 in 2.5 mi Calm Calm - N/A   Mostly Cloudy
5:55 AM 46.4 °F - 46.4 °F 100% 30.26 in 1.8 mi Calm Calm - N/A   Mostly Cloudy
6:15 AM 46.4 °F 45.2 °F 46.4 °F 100% 30.27 in 2.0 mi East 3.5 mph - N/A   Mostly Cloudy
6:35 AM 46.4 °F - 46.4 °F 100% 30.28 in 2.0 mi Calm Calm - N/A   Clear
6:55 AM 46.4 °F - 46.4 °F 100% 30.29 in 2.0 mi Calm Calm - N/A   Clear
7:15 AM 44.6 °F - 44.6 °F 100% 30.31 in 1.2 mi Calm Calm - N/A   Mist
7:35 AM 46.4 °F - 46.4 °F 100% 30.31 in 2.5 mi Calm Calm - N/A   Mostly Cloudy
7:55 AM 46.4 °F 45.2 °F 46.4 °F 100% 30.33 in 2.0 mi NE 3.5 mph - N/A   Overcast
8:35 AM 46.4 °F - 46.4 °F 100% 30.34 in 2.0 mi Calm Calm - N/A   Overcast
8:55 AM 46.4 °F 45.2 °F 46.4 °F 100% 30.34 in 2.5 mi ENE 3.5 mph - N/A   Scattered Clouds
9:15 AM 46.4 °F 45.2 °F 46.4 °F 100% 30.35 in 3.0 mi NE 3.5 mph - N/A   Clear
9:35 AM 46.4 °F 45.2 °F 46.4 °F 100% 30.35 in 4.0 mi NE 3.5 mph - N/A   Clear
9:55 AM 48.2 °F - 48.2 °F 100% 30.35 in 4.0 mi NE 3.5 mph - N/A   Scattered Clouds
10:15 AM 50.0 °F - 50.0 °F 100% 30.35 in 5.0 mi ENE 4.6 mph - N/A   Clear
10:35 AM 50.0 °F - 50.0 °F 100% 30.36 in 7.0 mi ENE 4.6 mph - N/A   Clear
10:55 AM 51.8 °F - 50.0 °F 94% 30.36 in 10.0 mi ENE 5.8 mph - N/A   Clear
11:15 AM 51.8 °F - 48.2 °F 88% 30.36 in 10.0 mi ENE 9.2 mph - N/A   Clear
12:15 PM 53.6 °F - 48.2 °F 82% 30.33 in 10.0 mi ENE 6.9 mph - N/A   Clear
12:35 PM 53.6 °F - 44.6 °F 72% 30.32 in 10.0 mi ENE 9.2 mph - N/A   Clear
12:55 PM 53.6 °F - 44.6 °F 72% 30.31 in 10.0 mi NE 6.9 mph - N/A   Clear
1:15 PM 53.6 °F - 42.8 °F 67% 30.31 in 10.0 mi ENE 8.1 mph - N/A   Clear
1:35 PM 55.4 °F - 42.8 °F 63% 30.31 in 10.0 mi ENE 10.4 mph 17.3 mph N/A   Clear
1:55 PM 55.4 °F - 42.8 °F 63% 30.31 in 10.0 mi ENE 9.2 mph - N/A   Clear
2:15 PM 55.4 °F - 42.8 °F 63% 30.31 in 10.0 mi ENE 8.1 mph - N/A   Clear
2:35 PM 55.4 °F - 42.8 °F 63% 30.31 in 10.0 mi ENE 5.8 mph - N/A   Clear
2:55 PM 55.4 °F - 42.8 °F 63% 30.31 in 10.0 mi ENE 6.9 mph - N/A   Clear
3:15 PM 55.4 °F - 41.0 °F 58% 30.30 in 10.0 mi ENE 8.1 mph - N/A   Clear
3:35 PM 55.4 °F - 42.8 °F 63% 30.30 in 10.0 mi ENE 6.9 mph - N/A   Clear
3:55 PM 55.4 °F - 41.0 °F 58% 30.30 in 10.0 mi ENE 6.9 mph - N/A   Clear
4:15 PM 55.4 °F - 39.2 °F 54% 30.31 in 10.0 mi ENE 8.1 mph - N/A   Clear
4:35 PM 55.4 °F - 39.2 °F 54% 30.30 in 10.0 mi NE 4.6 mph - N/A   Clear
4:55 PM 55.4 °F - 37.4 °F 51% 30.30 in 10.0 mi ENE 6.9 mph - N/A   Clear
5:15 PM 53.6 °F - 39.2 °F 58% 30.30 in 10.0 mi ENE 8.1 mph - N/A   Clear
5:35 PM 53.6 °F - 39.2 °F 58% 30.29 in 10.0 mi ENE 8.1 mph - N/A   Clear
5:55 PM 53.6 °F - 41.0 °F 62% 30.30 in 10.0 mi ENE 5.8 mph - N/A   Clear
6:15 PM 53.6 °F - 41.0 °F 62% 30.30 in 10.0 mi ENE 5.8 mph - N/A   Clear
6:35 PM 51.8 °F - 41.0 °F 67% 30.29 in 10.0 mi ENE 5.8 mph - N/A   Clear
6:55 PM 51.8 °F - 41.0 °F 67% 30.30 in 10.0 mi ENE 5.8 mph - N/A   Clear
7:15 PM 53.6 °F - 41.0 °F 62% 30.30 in 10.0 mi ENE 8.1 mph - N/A   Mostly Cloudy
7:35 PM 53.6 °F - 39.2 °F 58% 30.29 in 10.0 mi ENE 6.9 mph - N/A   Overcast
7:55 PM 53.6 °F - 37.4 °F 54% 30.29 in 10.0 mi ENE 8.1 mph 16.1 mph N/A   Overcast
8:15 PM 53.6 °F - 37.4 °F 54% 30.28 in 10.0 mi ENE 8.1 mph 16.1 mph N/A   Overcast
8:35 PM 53.6 °F - 37.4 °F 54% 30.28 in 10.0 mi ENE 8.1 mph - N/A   Overcast
8:55 PM 53.6 °F - 37.4 °F 54% 30.28 in 10.0 mi East 6.9 mph - N/A   Overcast
9:15 PM 53.6 °F - 37.4 °F 54% 30.27 in 10.0 mi East 9.2 mph 16.1 mph N/A   Overcast
9:35 PM 53.6 °F - 37.4 °F 54% 30.25 in 10.0 mi East 10.4 mph 16.1 mph N/A   Overcast
9:55 PM 55.4 °F - 37.4 °F 51% 30.24 in 10.0 mi East 15.0 mph 20.7 mph N/A   Overcast
10:15 PM 55.4 °F - 35.6 °F 47% 30.23 in 10.0 mi East 17.3 mph 26.5 mph N/A   Overcast
10:35 PM 55.4 °F - 35.6 °F 47% 30.23 in 10.0 mi East 15.0 mph 32.2 mph N/A   Overcast
10:55 PM 55.4 °F - 35.6 °F 47% 30.22 in 10.0 mi East 16.1 mph 26.5 mph N/A   Overcast
11:15 PM 55.4 °F - 33.8 °F 44% 30.22 in 10.0 mi East 19.6 mph 29.9 mph N/A   Overcast
11:35 PM 55.4 °F - 35.6 °F 47% 30.22 in 10.0 mi East 13.8 mph 24.2 mph N/A   Overcast
11:55 PM 53.6 °F - 37.4 °F 54% 30.22 in 10.0 mi East 12.7 mph 21.9 mph N/A   Mostly Cloudy